Tracking 19638 objects as of 19-Apr-2019
HD Live streaming from Space Station
objects crossing your sky now

SL-8 R/B

Track SL-8 R/B now!
10-day predictions


NORAD ID: 11586
Int'l Code: 1979-090B
Perigee: 953.9 km
Apogee: 995.3 km
Inclination: 82.9 °
Period: 104.4 minutes
Semi major axis: 7345 km
RCS: 5.15 m2 (large)
Launch date: October 16, 1979
Source: Commonwealth of Independent States (former USSR) (CIS)
Launch site: PLESETSK MISSILE AND SPACE COMPLEX (PKMTR)

Note: This is a ROCKET BODY
aabbcc
Your satellite tracking list
Your tracking list is empty




NASA's NSSDC Master Catalog

Two Line Element Set (TLE):
1 11586U 79090B   19108.62035452  .00000122  00000-0  10370-3 0  9991
2 11586  82.9410 293.1372 0028191 132.6188 227.7354 13.78987918987537
Source of the keplerian elements: AFSPC